IBP YPJT-YABA

Flight info

Callsign IBP
Flight time N/A
Altitude 19000
Route SOLUS W172 JOSBU V408 ABA
Aircraft C414/L-SBDFGRY/S

Departure

Time 2026-05-05 10:07
Airport Perth Jandakot Airport (YPJT)

Arrival

Time N/A
Airport Albany Airport (YABA)
Time Latitude Longitude Altitude Speed Heading
2026-05-05 09:48 -32.09799 115.87186 99 ft 0 kts 116°
2026-05-05 10:03 -32.09801 115.87192 99 ft 6 kts 105°
2026-05-05 10:03 -32.09833 115.87289 99 ft 18 kts 115°
2026-05-05 10:03 -32.09842 115.87396 99 ft 12 kts 155°
2026-05-05 10:03 -32.09927 115.87431 99 ft 8 kts 161°
2026-05-05 10:04 -32.09945 115.87439 99 ft 0 kts 161°
2026-05-05 10:06 -32.09964 115.87448 98 ft 10 kts 146°
2026-05-05 10:06 -32.09942 115.87552 98 ft 31 kts 54°
2026-05-05 10:07 -32.09667 115.88002 100 ft 100 kts 54°
2026-05-05 10:07 -32.09198 115.88764 367 ft 124 kts 56°
2026-05-05 10:07 -32.08758 115.89591 646 ft 113 kts 67°
2026-05-05 10:07 -32.08456 115.90404 803 ft 107 kts 76°
2026-05-05 10:08 -32.08146 115.91208 876 ft 112 kts 56°
2026-05-05 10:08 -32.07465 115.91602 938 ft 111 kts 358°
2026-05-05 10:08 -32.06807 115.91168 948 ft 113 kts 303°
2026-05-05 10:08 -32.06645 115.90311 1039 ft 106 kts 260°
2026-05-05 10:09 -32.06848 115.89475 1068 ft 105 kts 251°
2026-05-05 10:09 -32.07120 115.88740 1004 ft 90 kts 211°
2026-05-05 10:09 -32.07702 115.88571 788 ft 87 kts 185°
2026-05-05 10:09 -32.08306 115.88531 566 ft 88 kts 184°
2026-05-05 10:10 -32.08922 115.88544 335 ft 90 kts 181°
2026-05-05 10:10 -32.09472 115.88304 103 ft 81 kts 231°
2026-05-05 10:10 -32.09742 115.87880 99 ft 50 kts 234°
2026-05-05 10:10 -32.09789 115.87680 99 ft 15 kts 326°
2026-05-05 10:11 -32.09777 115.87670 99 ft 0 kts 324°